CAPE
0 7 1265 1411 1551 1355 1101 901 542 577 843 921 591 459 380 7 0 0 116 282 216 175 3 1 3 5 9 21 104 152 281 422 458 360 230 332 430 536 369 294 295 287 326
0 511 1760 1602 1600 1276 1002 706 563 632 958 855 343 146 279 63 0 0 102 306 182 15 0 2 5 3 4 7 36 107 109 177 177 207 322 309 350 463 456 320 372 420 335
0 716 1444 1503 1466 1382 1212 1011 662 1033 921 661 225 61 2 366 11 0 102 287 110 5 2 4 4 4 5 3 1 5 3 25 184 157 165 227 379 588 602 327 322 466 311
65 767 1278 1593 1539 1393 1323 1218 1091 986 848 562 212 40 0 145 114 25 149 242 58 6 3 1 2 6 8 8 2 0 0 0 121 170 250 207 306 463 547 514 471 371 340
408 870 1395 1605 1475 1351 1273 1252 1066 932 789 328 119 8 0 0 370 152 119 247 86 5 3 0 0 0 1 6 3 0 33 16 26 51 128 205 307 335 428 463 297 183 189
518 660 1466 1485 1376 1369 1393 1223 1158 900 740 192 39 1 0 0 356 200 113 214 57 3 0 0 0 0 0 0 0 0 43 10 9 28 74 196 246 346 352 343 186 69 51
845 924 1448 1295 1497 1504 1230 1182 1061 825 362 118 2 0 0 1 425 172 24 251 76 5 2 0 0 0 0 0 0 0 8 13 14 12 25 74 128 257 300 319 299 287 39
839 1132 1259 1333 1397 1326 1368 1219 1021 543 218 28 1 0 1 507 262 157 162 135 35 3 0 0 0 0 0 0 0 0 0 16 5 7 21 31 34 102 182 251 249 237 223
467 365 800 972 926 1308 1186 1040 791 392 96 18 0 0 362 403 221 149 163 113 42 0 0 0 0 0 0 0 0 0 0 0 3 16 15 18 27 17 66 149 145 119 112
365 348 705 974 922 842 824 657 530 211 29 8 6 52 402 192 186 79 1 95 11 0 0 0 0 0 0 0 0 0 0 0 2 0 4 8 8 3 11 18 22 20 24
413 711 931 960 679 609 532 566 387 98 0 22 87 101 28 73 32 21 12 54 3 0 0 0 0 0 0 0 0 0 0 0 1 0 6 10 7 5 6 4 7 9 12
483 549 949 1009 709 412 389 437 55 6 0 11 81 19 102 7 12 23 0 30 0 0 0 0 0 0 0 0 0 0 0 1 0 1 4 5 1 1 0 0 0 0 0
825 848 1065 1223 974 425 107 46 0 0 1 131 93 20 12 13 0 0 0 16 0 0 0 0 0 0 0 0 0 1 0 1 0 0 2 1 0 1 0 0 0 0 0
273 457 1198 902 902 197 15 1 0 0 283 384 129 18 3 3 0 1 0 7 1 0 0 0 0 0 0 0 0 0 0 0 0 0 1 4 2 1 0 0 0 0 0
874 1050 1137 816 385 88 5 0 1 416 523 266 90 4 3 0 0 0 0 0 0 0 0 0 0 0 0 0 0 0 0 0 0 0 0 0 0 0 0 0 0 0 0
800 820 913 622 589 64 1 0 162 568 363 169 41 2 0 0 0 0 0 0 0 0 0 0 0 0 0 0 0 0 0 0 0 0 0 0 0 0 0 0 0 0 0
1064 848 875 693 311 99 0 10 481 548 372 273 82 0 0 0 0 0 0 0 0 0 0 0 0 0 0 0 0 0 0 0 0 0 0 0 0 0 0 0 0 0 0
1088 886 727 946 259 144 3 418 527 525 274 245 59 0 0 0 0 0 0 0 0 0 0 0 0 0 0 0 0 0 0 0 0 0 0 0 0 0 0 0 0 0 0
1192 852 641 747 276 189 11 453 444 414 260 217 7 0 0 0 0 0 0 0 0 0 0 0 0 0 0 0 0 0 0 0 0 0 0 0 0 0 0 0 0 0 0
1229 593 492 525 386 257 47 425 345 413 231 228 0 0 0 0 0 0 0 0 0 0 0 0 0 0 0 0 0 0 0 0 0 0 0 0 0 0 0 0 0 0 0
898 378 0 392 508 244 229 318 409 314 238 68 0 0 0 0 0 0 0 0 0 0 0 0 0 0 0 0 0 0 0 0 0 0 0 0 0 0 0 0 0 0 0
1148 632 486 478 588 422 478 338 192 180 172 11 2 0 0 0 0 0 0 0 0 0 0 0 0 0 0 0 0 0 0 0 0 0 0 0 0 0 0 0 0 0 0
940 1035 683 221 862 476 617 168 7 0 0 0 0 0 0 0 0 0 0 0 0 0 0 0 0 0 0 0 0 0 0 0 0 0 0 0 0 0 0 0 0 0 0
476 977 873 744 749 631 362 4 2 4 0 1 0 0 0 0 0 0 0 0 0 0 0 0 0 0 0 0 0 0 0 0 0 0 0 0 0 0 0 0 0 0 0
235 564 1088 419 104 389 125 20 54 23 0 0 0 0 0 0 0 0 0 0 0 0 0 0 0 0 0 0 0 0 0 0 0 0 0 0 0 0 0 0 0 0 0
411 845 683 76 47 82 0 5 0 0 0 0 3 3 3 1 0 0 0 0 0 0 0 0 0 0 0 0 0 0 0 0 0 0 0 0 0 0 0 0 0 0 0
CIN
-0 -167 -24 -0 -0 -0 -0 -0 -5 -2 -0 -0 -0 -0 -4 -92 -0 -0 -97 -35 -52 -52 -0 -0 -0 -0 -0 -83 -57 -48 -32 -18 -14 -24 -41 -19 -10 -0 -4 -7 -0 -3 -0
-0 -169 -0 -0 -0 -0 -0 -0 -0 -0 -0 -0 -0 -27 -2 -125 -0 -0 -110 -30 -70 -190 -0 -0 -0 -0 -0 -0 -106 -72 -80 -67 -66 -49 -24 -22 -12 -6 -0 -7 -1 -0 -0
-0 -116 -5 -1 -0 -0 -0 -0 -0 -0 -0 -0 -11 -108 -29 -1 -190 -0 -119 -44 -125 -0 -0 -0 -0 -0 -0 -0 -0 -162 -173 -160 -73 -75 -57 -36 -6 -0 -0 -5 -4 -0 -1
-86 -92 -21 -0 -0 -0 -0 -0 -0 -0 -0 -0 -19 -145 -0 -61 -87 -162 -85 -54 -150 -0 -0 -0 -0 -0 -0 -0 -0 -0 -0 -0 -100 -70 -44 -49 -21 -5 -2 -0 -0 -0 -0
-98 -55 -16 -0 -1 -0 -0 -0 -0 -0 -0 -1 -60 -206 -0 -0 -5 -67 -75 -51 -124 -0 -0 -0 -0 -0 -0 -0 -0 -0 -165 -37 -50 -148 -80 -55 -28 -24 -6 -3 -16 -41 -26
-71 -40 -27 -4 -1 -0 -0 -0 -0 -0 -0 -23 -142 -0 -0 -0 -19 -54 -100 -56 -150 -0 -0 -0 -0 -0 -0 -0 -0 -0 -93 -11 -3 -2 -166 -78 -52 -22 -18 -18 -70 -127 -120
-67 -37 -3 -6 -0 -0 -1 -0 -0 -0 -0 -48 -74 -0 -0 -21 -19 -64 -174 -60 -163 -0 -0 -0 -0 -0 -0 -0 -0 -0 -1 -6 -2 -4 -0 -154 -120 -62 -55 -46 -38 -40 -167
-29 -10 -1 -1 -0 -0 -0 -0 -0 -0 -15 -154 -91 -0 -20 -14 -47 -83 -77 -91 -30 -0 -0 -0 -0 -0 -0 -0 -0 -0 -0 -6 -1 -0 -0 -0 -101 -129 -81 -47 -44 -49 -48
-61 -60 -32 -0 -1 -0 -0 -0 -0 -0 -48 -198 -0 -0 -20 -12 -42 -82 -86 -96 -5 -0 -0 -0 -0 -0 -0 -0 -0 -0 -0 -1 -1 -0 -1 -0 -0 -0 -188 -100 -91 -90 -81
-80 -79 -41 -2 -0 -0 -0 -1 -3 -7 -83 -158 -122 -83 -9 -42 -43 -103 -3 -131 -0 -0 -0 -0 -0 -0 -0 -0 -0 -0 -0 -0 -0 -0 -0 -2 -3 -3 -0 -0 -0 -0 -68
-46 -19 -16 -5 -1 -0 -0 -0 -2 -21 -12 -87 -40 -47 -137 -98 -107 -1 -7 -1 -0 -0 -0 -0 -0 -0 -0 -0 -0 -0 -1 -0 -0 -0 -0 -1 -0 -0 -0 -0 -0 -0 -0
-20 -7 -8 -1 -6 -6 -1 -4 -27 -4 -0 -0 -34 -4 -39 -1 -1 -2 -0 -1 -0 -0 -0 -0 -0 -0 -0 -0 -0 -0 -0 -0 -0 -0 -0 -0 -0 -0 -0 -0 -0 -0 -0
-12 -6 -10 -1 -10 -16 -32 -72 -0 -0 -0 -2 -12 -2 -1 -1 -0 -1 -0 -0 -0 -0 -0 -0 -0 -0 -0 -0 -0 -0 -0 -0 -0 -0 -0 -0 -0 -0 -0 -0 -0 -0 -0
-97 -39 -13 -1 -3 -36 -1 -0 -0 -0 -0 -5 -7 -1 -4 -0 -0 -0 -0 -0 -0 -0 -0 -0 -0 -0 -0 -0 -0 -0 -0 -0 -0 -0 -0 -0 -0 -0 -0 -0 -0 -0 -0
-4 -5 -1 -8 -1 -51 -1 -0 -1 -9 -3 -18 -6 -1 -0 -0 -0 -0 -0 -0 -0 -0 -0 -0 -0 -0 -0 -0 -0 -0 -0 -0 -0 -0 -0 -0 -0 -0 -0 -0 -0 -0 -0
-12 -6 -1 -5 -3 -52 -1 -0 -13 -2 -5 -3 -19 -3 -0 -0 -0 -0 -0 -0 -0 -0 -0 -0 -0 -0 -0 -0 -0 -0 -0 -0 -0 -0 -0 -0 -0 -0 -0 -0 -0 -0 -0
-4 -2 -3 -5 -19 -43 -1 -29 -1 -0 -0 -3 -2 -4 -0 -0 -0 -0 -0 -0 -0 -0 -0 -0 -0 -0 -0 -0 -0 -0 -0 -0 -0 -0 -0 -0 -0 -0 -0 -0 -0 -0 -0
-0 -1 -17 -0 -89 -33 -1 -15 -9 -0 -13 -3 -15 -0 -0 -0 -0 -0 -0 -0 -0 -0 -0 -0 -0 -0 -0 -0 -0 -0 -0 -0 -0 -0 -0 -0 -0 -0 -0 -0 -0 -0 -0
-4 -3 -7 -1 -7 -35 -1 -7 -8 -2 -8 -8 -7 -0 -0 -0 -0 -0 -0 -0 -0 -0 -0 -0 -0 -0 -0 -0 -0 -0 -0 -0 -0 -0 -0 -0 -0 -0 -0 -0 -0 -0 -0
-3 -10 -3 -15 -21 -2 -33 -9 -10 -1 -8 -1 -0 -0 -0 -0 -0 -0 -0 -0 -0 -0 -0 -0 -0 -0 -0 -0 -0 -0 -0 -0 -0 -0 -0 -0 -0 -0 -0 -0 -0 -0 -0
-12 -54 -0 -9 -5 -34 -57 -11 -1 -0 -7 -21 -0 -0 -0 -0 -0 -0 -0 -0 -0 -0 -0 -0 -0 -0 -0 -0 -0 -0 -0 -0 -0 -0 -0 -0 -0 -0 -0 -0 -0 -0 -0
-2 -28 -1 -3 -17 -20 -53 -39 -19 -15 -3 -28 -1 -0 -0 -0 -0 -0 -0 -0 -0 -0 -0 -0 -0 -0 -0 -0 -0 -0 -0 -0 -0 -0 -0 -0 -0 -0 -0 -0 -0 -0 -0
-15 -54 -5 -0 -2 -42 -20 -37 -52 -3 -0 -0 -0 -0 -0 -0 -0 -0 -0 -0 -0 -0 -0 -0 -0 -0 -0 -0 -0 -0 -0 -0 -0 -0 -0 -0 -0 -0 -0 -0 -0 -0 -0
-42 -9 -3 -7 -5 -1 -2 -76 -72 -96 -0 -0 -0 -0 -0 -0 -0 -0 -0 -0 -0 -0 -0 -0 -0 -0 -0 -0 -0 -0 -0 -0 -0 -0 -0 -0 -0 -0 -0 -0 -0 -0 -0
-80 -15 -1 -27 -0 -4 -52 -129 -21 -37 -0 -0 -0 -0 -0 -0 -0 -0 -0 -0 -0 -0 -0 -0 -0 -0 -0 -0 -0 -0 -0 -0 -0 -0 -0 -0 -0 -0 -0 -0 -0 -0 -0
-53 -15 -3 -58 -3 -44 -1 -39 -0 -0 -0 -0 -0 -0 -0 -0 -0 -0 -0 -0 -0 -0 -0 -0 -0 -0 -0 -0 -0 -0 -0 -0 -0 -0 -0 -0 -0 -0 -0 -0 -0 -0 -0
Wind_Speed
5 9 9 11 10 10 11 11 11 12 14 15 16 16 17 18 18 17 17 17 18 19 19 19 19 19 19 20 20 21 22 23 23 26 28 28 28 28 29 30 32 34 35
5 9 8 10 9 9 10 9 10 11 12 14 14 15 16 17 17 18 17 16 17 18 19 19 19 19 18 18 19 19 20 22 23 24 25 27 27 28 28 29 30 32 33
6 7 7 8 9 9 9 9 10 10 11 13 14 15 15 16 16 16 16 17 17 18 19 20 20 20 19 18 18 18 18 19 22 23 23 25 26 27 27 28 30 31 32
4 4 6 7 7 7 7 6 8 8 10 12 13 14 15 15 16 16 16 16 17 17 18 19 19 19 19 18 18 17 17 18 22 21 23 24 25 26 27 27 29 30 31
1 3 4 5 5 5 4 4 5 7 8 10 12 13 14 14 14 16 16 15 16 17 17 19 19 19 18 18 17 17 17 16 19 21 23 24 25 26 27 27 28 29 30
1 2 4 3 3 3 3 3 3 5 6 8 10 12 13 13 13 14 16 16 16 17 18 18 18 18 17 17 17 15 17 17 17 19 20 23 25 26 27 27 28 29 29
1 0 1 3 2 2 2 1 2 4 5 7 9 10 12 13 13 14 15 16 16 17 17 18 18 18 16 16 15 14 15 18 18 18 19 20 23 26 26 27 27 28 29
1 1 1 3 3 2 1 1 1 2 4 6 8 9 10 11 13 13 14 15 16 16 17 17 17 17 16 15 15 13 14 15 19 20 19 20 21 22 24 26 27 28 28
3 3 2 3 4 3 2 1 1 2 5 5 6 8 9 10 12 13 13 14 15 15 16 16 16 16 16 16 16 15 15 17 18 19 19 19 20 21 22 23 24 25 26
3 2 3 3 4 4 4 2 1 3 5 4 5 6 8 10 11 11 12 12 13 14 14 15 15 15 15 15 16 16 18 18 18 19 19 19 20 21 21 22 23 24 25
6 3 3 4 4 5 4 5 5 4 3 2 4 6 9 8 9 9 11 11 12 13 13 13 14 14 15 15 14 15 15 17 18 18 19 20 21 21 21 22 23 23 24
10 8 3 6 6 7 9 4 7 6 2 1 4 7 6 7 8 9 9 10 11 12 12 13 14 15 15 14 15 15 16 17 17 18 19 19 21 21 22 23 23 24 24
13 13 11 11 9 5 9 7 8 5 3 1 4 4 4 5 7 8 8 8 10 10 11 11 11 11 12 13 14 15 15 16 16 17 18 19 19 20 21 22 23 24 24
21 24 13 14 15 12 13 12 8 5 3 3 2 1 3 6 5 6 7 7 8 9 9 10 11 11 11 12 13 13 14 14 15 15 16 17 18 19 20 21 22 22 23
16 13 11 9 21 15 14 14 10 8 5 4 3 3 4 5 4 5 6 7 7 8 8 9 9 10 11 11 12 12 13 13 14 14 15 16 17 18 19 19 20 21 22
25 16 16 14 20 17 19 17 11 8 6 6 5 5 4 5 4 4 5 6 7 6 7 7 8 9 10 10 11 12 12 12 12 12 13 14 15 16 17 18 19 20 21
16 14 10 13 14 13 19 14 12 10 9 7 8 7 5 4 4 4 5 5 5 5 6 7 7 8 9 10 10 11 11 11 11 11 11 12 14 16 16 17 18 20 21
24 17 17 17 16 16 14 9 10 11 11 11 10 9 6 6 5 5 4 4 4 5 5 6 7 7 8 8 9 10 10 10 10 11 11 11 12 13 16 17 19 20 21
26 22 17 22 17 15 14 11 11 11 13 12 10 8 8 7 5 4 4 4 4 4 5 5 6 7 7 8 9 10 10 10 10 11 11 12 13 14 14 16 18 19 21
27 28 26 20 17 16 13 13 12 10 13 12 10 9 7 7 7 6 6 5 4 4 4 5 5 7 7 8 9 10 11 11 13 12 11 11 13 14 15 16 16 19 20
28 36 45 24 19 16 14 14 13 11 9 10 10 9 9 8 7 8 8 5 5 5 4 4 6 6 7 8 10 12 13 13 12 13 14 14 13 14 16 17 18 18 18
27 21 26 20 16 13 10 10 12 13 12 11 9 11 12 10 9 9 9 7 6 6 5 6 6 7 8 9 11 12 15 15 16 16 16 15 16 16 17 18 18 19 21
26 26 18 13 18 13 10 9 9 11 12 11 9 12 13 11 11 10 10 11 9 9 8 9 8 9 12 12 14 17 18 20 14 15 16 17 18 18 19 19 19 20 21
30 25 27 17 21 16 12 11 11 16 16 18 12 12 16 14 12 10 11 13 12 12 12 12 12 14 17 17 17 17 20 21 21 21 16 18 19 21 20 20 21 21 23
30 26 20 19 27 16 10 10 11 12 15 15 16 14 16 18 15 13 12 12 15 14 16 14 19 17 16 22 19 20 21 22 23 24 27 21 20 22 22 22 22 24 25
24 21 20 16 18 12 7 10 12 15 20 18 16 15 14 17 18 18 17 18 15 17 16 20 18 18 21 22 23 17 13 16 21 22 24 27 28 27 21 21 25 26 27
Wind_Direction
6 102 108 111 103 96 91 80 69 61 66 64 60 54 52 46 41 37 27 24 37 33 25 22 21 19 18 18 20 22 23 23 25 33 34 30 31 30 30 29 33 33 33
77 107 108 114 108 100 94 78 71 66 65 64 56 53 49 50 46 43 31 27 33 26 26 25 22 18 16 15 16 17 18 20 23 24 29 32 27 31 29 30 31 32 32
94 105 111 115 114 108 100 91 82 67 66 65 62 57 55 52 46 41 36 36 34 30 30 29 26 21 18 15 13 14 13 11 22 20 19 27 26 28 29 30 32 33 33
86 94 111 119 118 113 104 88 81 70 68 62 58 55 55 57 59 52 45 39 39 34 30 26 23 20 18 16 13 12 11 8 28 20 20 21 26 26 30 30 30 32 34
68 90 114 126 121 115 104 90 71 68 69 56 55 57 59 64 61 64 54 49 42 34 28 25 23 20 18 15 13 15 5 354 27 25 22 22 27 28 31 32 35 34 34
343 323 123 157 141 130 113 92 68 58 56 48 45 50 56 65 62 68 61 57 45 40 34 26 22 19 15 14 14 4 5 14 8 18 19 21 25 28 32 36 37 36 34
37 217 244 190 170 154 134 91 64 65 41 31 36 41 58 67 63 73 59 64 53 44 33 28 22 19 16 15 11 5 9 25 18 16 19 19 25 31 32 35 35 35 35
342 96 187 208 205 184 160 129 79 58 22 11 28 45 59 58 71 69 60 64 57 40 32 27 27 24 18 17 14 358 344 11 34 31 21 19 19 24 27 30 33 33 33
288 288 168 221 231 234 217 144 99 356 349 7 28 52 54 62 67 65 53 54 48 37 29 28 29 30 29 25 26 19 8 16 20 21 22 18 20 21 23 24 27 27 26
270 264 261 206 219 243 258 253 285 326 328 7 43 57 62 62 63 55 45 39 35 28 24 24 27 28 31 28 36 39 36 29 28 24 22 18 24 25 24 23 23 23 24
259 238 205 219 224 238 245 265 287 309 324 9 27 75 82 56 37 51 35 33 29 22 20 25 30 36 37 35 31 29 7 24 24 26 27 27 30 29 27 26 26 24 23
258 258 235 240 236 247 258 266 276 288 291 67 91 99 62 44 40 42 33 35 26 22 24 31 45 57 49 39 27 19 31 32 28 30 30 31 33 33 33 32 31 29 26
260 260 254 249 243 232 260 275 271 273 260 228 118 100 18 35 10 19 36 38 20 31 21 33 31 31 25 20 26 29 33 31 31 29 30 31 32 32 31 31 30 29 28
259 264 255 249 256 259 264 267 267 266 256 234 170 45 13 353 39 37 40 35 24 18 22 17 13 24 27 33 34 31 28 29 29 29 24 25 28 28 30 27 27 25 24
257 236 233 228 252 255 259 261 264 271 262 199 254 311 336 343 8 22 18 14 9 5 14 14 27 24 23 20 20 24 24 31 29 25 21 22 27 27 24 21 21 21 19
259 252 245 249 248 252 253 256 262 264 238 253 279 296 329 332 334 360 6 2 3 14 19 24 22 17 16 17 15 14 17 17 26 33 26 11 11 19 20 18 16 16 16
250 242 224 237 243 251 252 256 262 256 251 252 273 290 304 314 323 343 350 1 9 17 27 18 15 17 11 12 16 12 12 16 15 22 25 22 9 4 9 7 7 8 8
255 237 237 240 237 246 248 249 249 254 248 263 274 283 285 294 310 322 337 354 11 16 13 12 6 7 10 7 7 1 2 3 6 5 2 6 5 2 356 357 358 357 358
253 241 227 236 235 237 241 249 248 247 252 260 274 280 275 283 293 311 325 339 353 353 356 360 359 352 355 353 350 347 346 346 346 349 349 345 343 347 355 352 353 353 353
252 249 236 220 224 236 243 250 252 251 249 264 271 276 267 275 279 295 302 310 326 331 343 349 347 342 346 343 340 337 332 333 328 330 340 338 338 339 340 343 349 347 347
255 259 259 214 226 226 236 246 247 248 245 262 272 271 268 268 270 282 289 293 308 312 329 328 333 337 339 331 330 324 324 323 321 320 320 322 329 330 330 333 334 339 345
254 253 203 213 210 207 198 225 250 250 261 270 282 278 276 270 269 273 282 289 295 300 311 306 319 323 322 321 322 321 316 316 311 310 312 317 318 321 323 325 329 331 331
254 253 254 178 225 221 205 225 239 253 269 282 281 281 275 269 268 273 276 285 289 296 297 295 306 307 309 311 313 312 309 307 314 315 308 309 311 314 317 321 324 328 329
253 256 259 253 242 230 225 243 240 256 263 280 283 288 281 271 265 268 273 282 299 300 301 299 306 306 301 307 306 303 304 309 311 310 312 310 309 310 313 318 321 322 323
253 257 263 277 251 238 231 257 256 268 280 290 287 288 282 272 264 266 264 274 282 284 292 300 304 303 298 301 301 305 304 303 305 306 304 311 310 312 313 315 316 317 319
256 259 268 279 278 245 222 268 266 277 289 290 297 291 290 277 265 274 270 268 272 285 286 295 299 295 298 297 295 304 312 313 307 306 306 306 308 307 310 313 314 315 316